DC4THF-13 Weather Reports


Display with metric or nautical units.
time (UTC)temp
F
wind
direction
speed
MPH
gust
MPH
rain 1hr
in
rain 24hr
in
rain mn
in
humidity
%
barometer
mb
20260505032300 57 0.0 0.0 0.00 0.01 0.00 76 1004.9
20260505031257 57 0.0 1.0 0.00 0.01 0.00 76 1004.9
20260505030254 57 293 0.0 2.0 0.00 0.01 0.00 76 1005.0
20260505025251 57 325 1.0 2.0 0.00 0.01 0.00 76 1005.0
20260505024247 57 328 1.0 3.0 0.00 0.01 0.00 76 1005.1
20260505023244 57 315 0.0 2.0 0.00 0.01 0.00 76 1005.2
20260505022241 57 311 2.0 4.0 0.00 0.01 0.00 76 1005.3
20260505021237 57 315 0.0 2.0 0.00 0.01 0.00 75 1005.4
20260505020234 57 275 1.0 2.0 0.00 0.01 0.00 75 1005.4
20260505015231 57 0.0 1.0 0.00 0.01 0.00 75 1005.6
20260505014228 57 0.0 1.0 0.00 0.01 0.00 75 1005.7
20260505013224 57 202 0.0 2.0 0.00 0.01 0.00 75 1005.6
20260505012221 57 0.0 1.0 0.00 0.01 0.00 75 1005.4
20260505011218 57 0.0 0.0 0.00 0.01 0.00 75 1005.2
20260505010215 57 90 0.0 2.0 0.00 0.01 0.00 75 1005.4
20260505005312 57 0.0 1.0 0.00 0.01 0.00 75 1005.4
20260505004309 57 0.0 1.0 0.00 0.01 0.00 75 1005.5
20260505003306 57 0.0 1.0 0.00 0.01 0.00 76 1005.7
20260505002304 57 0 1.0 4.0 0.00 0.01 0.00 76 1005.7
20260505001259 57 0.0 1.0 0.00 0.01 0.00 77 1005.9
20260505000256 57 0.0 1.0 0.00 0.01 0.00 77 1005.9
20260504235253 56 0.0 0.0 0.00 0.01 0.00 77 1006.0
20260504234250 56 0.0 0.0 0.00 0.01 0.00 77 1006.0
20260504233247 56 0.0 0.0 0.00 0.01 0.00 77 1006.0
20260504232243 56 0.0 0.0 0.00 0.01 0.00 77 1006.2
20260504231240 56 0.0 0.0 0.00 0.01 0.00 77 1006.1
20260504230237 56 0.0 0.0 0.00 0.01 0.00 78 1006.2
20260504225234 56 0.0 0.0 0.00 0.01 0.00 78 1006.2
20260504224231 56 0.0 0.0 0.00 0.01 0.00 78 1006.2
20260504223227 56 0.0 0.0 0.00 0.01 0.00 77 1006.3
20260504222224 55 0.0 0.0 0.00 0.01 0.00 77 1006.3
20260504221221 56 0.0 0.0 0.00 0.01 0.00 75 1006.4
20260504220218 56 0.0 0.0 0.00 0.01 0.00 74 1006.2
20260504215314 57 0.0 0.0 0.00 0.01 0.01 74 1006.3
20260504214311 57 0.0 0.0 0.00 0.01 0.01 73 1006.2
20260504213307 58 0.0 0.0 0.00 0.01 0.01 72 1006.3
20260504212304 58 0.0 0.0 0.00 0.01 0.01 72 1006.3
20260504211300 59 0.0 0.0 0.00 0.01 0.01 71 1006.3
20260504210256 59 0.0 0.0 0.00 0.01 0.01 71 1006.2
20260504205252 60 0.0 0.0 0.00 0.01 0.01 70 1006.4
20260504204250 61 0.0 0.0 0.00 0.01 0.01 69 1006.3
20260504203246 62 0.0 0.0 0.00 0.01 0.01 66 1006.4
20260504202242 62 0.0 0.0 0.00 0.01 0.01 64 1006.2
20260504201239 62 0.0 0.0 0.00 0.01 0.01 65 1006.1
20260504200235 62 0.0 0.0 0.00 0.01 0.01 65 1006.1
20260504195232 63 0.0 0.0 0.00 0.01 0.01 64 1006.0
20260504194229 63 0.0 0.0 0.00 0.01 0.01 62 1005.9
20260504193226 64 270 1.0 2.0 0.00 0.01 0.01 61 1005.9
20260504192223 64 302 1.0 2.0 0.00 0.01 0.01 60 1005.8
20260504191220 64 0.0 0.0 0.00 0.01 0.01 58 1005.7
20260504190216 65 315 0.0 3.0 0.00 0.01 0.01 58 1005.7
20260504185313 66 0.0 1.0 0.00 0.01 0.01 56 1005.6
20260504184310 66 270 0.0 2.0 0.00 0.01 0.01 55 1005.5
20260504183307 67 315 1.0 2.0 0.00 0.01 0.01 53 1005.4
20260504182304 68 294 2.0 4.0 0.00 0.01 0.01 52 1005.2
20260504181301 69 293 2.0 3.0 0.00 0.01 0.01 51 1005.2
20260504180258 69 290 2.0 4.0 0.00 0.01 0.01 51 1005.1
20260504175254 70 307 1.0 3.0 0.00 0.01 0.01 50 1005.0
20260504174251 70 283 2.0 5.0 0.00 0.01 0.01 50 1004.9
20260504173248 71 275 2.0 4.0 0.00 0.01 0.01 49 1004.8
20260504172244 71 282 1.0 3.0 0.00 0.01 0.01 48 1004.7
20260504171242 72 261 2.0 3.0 0.00 0.01 0.01 45 1004.6
20260504170238 73 29 1.0 3.0 0.00 0.01 0.01 41 1004.5
20260504160219 74 180 0.0 2.0 0.00 0.01 0.01 41 1004.7
20260504150300 74 273 1.0 3.0 0.00 0.01 0.01 42 1004.9
20260504141244 76 213 3.0 8.0 0.00 0.01 0.01 40 1005.2
20260504140241 75 166 3.0 5.0 0.00 0.01 0.01 41 1005.2
20260504130222 74 259 5.0 8.0 0.00 0.01 0.01 41 1005.3
20260504120259 75 177 3.0 6.0 0.00 0.01 0.01 42 1005.5
20260504110237 73 293 1.0 4.0 0.00 0.01 0.01 43 1005.9
20260504100218 74 267 4.0 6.0 0.00 0.01 0.01 43 1006.6
20260504081243 71 183 3.0 9.0 0.00 0.01 0.01 49 1007.0
20260504080240 72 205 2.0 5.0 0.00 0.01 0.01 50 1007.0
20260504070220 69 164 2.0 4.0 0.00 0.01 0.01 56 1007.1
20260504050237 58 113 0.0 2.0 0.01 0.01 0.01 73 1006.6
20260504045234 58 135 0.0 2.0 0.01 0.01 0.01 74 1006.5
20260504044231 57 165 0.0 2.0 0.01 0.01 0.01 73 1006.5
20260504043227 58 151 0.0 2.0 0.01 0.01 0.01 71 1006.5
20260504042223 58 142 1.0 2.0 0.01 0.01 0.01 70 1006.4
20260504041219 58 0.0 1.0 0.00 0.00 0.00 71 1006.3
20260504040315 58 135 0.0 2.0 0.00 0.00 0.00 71 1006.2
20260504035311 58 0.0 0.0 0.00 0.00 0.00 70 1006.0
20260504034307 59 0.0 0.0 0.00 0.00 0.00 68 1005.8
20260504033304 59 0.0 1.0 0.00 0.00 0.00 66 1006.0